VOE8MN LEAS-LEMD

Flight info

Callsign VOE8MN
Flight time 0h 45m
Altitude 29000
Route KUVAN Y27 LARVO DCT ZMR
Aircraft A320/M-SDFGHIJ1RWY/LB1

Departure

Time 2026-05-07 14:16
Airport Asturias Airport (LEAS)

Arrival

Time 2026-05-07 15:01
Airport Adolfo Suárez Madrid–Barajas Airport (LEMD)
Time Latitude Longitude Altitude Speed Heading
2026-05-07 13:55 43.55971 -6.03109 426 ft 0 kts 245°
2026-05-07 14:10 43.55971 -6.03114 417 ft 2 kts 268°
2026-05-07 14:10 43.55999 -6.03102 426 ft 5 kts 30°
2026-05-07 14:11 43.56033 -6.03132 424 ft 9 kts 294°
2026-05-07 14:11 43.56064 -6.03215 421 ft 11 kts 322°
2026-05-07 14:11 43.56150 -6.03291 418 ft 17 kts 289°
2026-05-07 14:11 43.56184 -6.03431 417 ft 14 kts 287°
2026-05-07 14:12 43.56215 -6.03564 418 ft 17 kts 288°
2026-05-07 14:12 43.56256 -6.03733 421 ft 20 kts 288°
2026-05-07 14:12 43.56302 -6.03924 417 ft 24 kts 287°
2026-05-07 14:12 43.56356 -6.04158 417 ft 26 kts 288°
2026-05-07 14:13 43.56400 -6.04343 413 ft 16 kts 288°
2026-05-07 14:13 43.56430 -6.04468 415 ft 12 kts 288°
2026-05-07 14:13 43.56452 -6.04558 426 ft 9 kts 288°
2026-05-07 14:13 43.56466 -6.04620 426 ft 8 kts 288°
2026-05-07 14:14 43.56518 -6.04707 426 ft 15 kts 323°
2026-05-07 14:14 43.56612 -6.04752 428 ft 15 kts
2026-05-07 14:14 43.56639 -6.04665 417 ft 9 kts 117°
2026-05-07 14:14 43.56636 -6.04643 421 ft 0 kts 101°
2026-05-07 14:15 43.56560 -6.04302 422 ft 76 kts 107°
2026-05-07 14:15 43.56321 -6.03292 428 ft 141 kts 107°
2026-05-07 14:15 43.56000 -6.01945 980 ft 149 kts 106°
2026-05-07 14:16 43.55666 -6.00575 1782 ft 151 kts 106°
2026-05-07 14:16 43.55337 -5.99199 2378 ft 152 kts 107°
2026-05-07 14:16 43.54991 -5.97741 2531 ft 173 kts 108°
2026-05-07 14:16 43.54593 -5.96061 2727 ft 195 kts 108°
2026-05-07 14:17 43.54146 -5.94177 2891 ft 220 kts 108°
2026-05-07 14:17 43.53649 -5.92080 3240 ft 236 kts 108°
2026-05-07 14:17 43.52874 -5.90068 3828 ft 242 kts 137°
2026-05-07 14:17 43.51401 -5.89051 4447 ft 245 kts 175°
2026-05-07 14:18 43.49741 -5.89493 5087 ft 248 kts 212°
2026-05-07 14:18 43.48507 -5.91149 5779 ft 250 kts 230°
2026-05-07 14:18 43.47196 -5.92711 6478 ft 251 kts 204°
2026-05-07 14:18 43.45546 -5.93391 7225 ft 252 kts 190°
2026-05-07 14:19 43.43780 -5.93686 7952 ft 253 kts 185°
2026-05-07 14:19 43.42041 -5.93862 8717 ft 254 kts 185°
2026-05-07 14:19 43.40274 -5.94045 9479 ft 255 kts 185°
2026-05-07 14:19 43.38496 -5.94271 10138 ft 257 kts 186°
2026-05-07 14:20 43.36712 -5.94551 10762 ft 259 kts 191°
2026-05-07 14:20 43.34998 -5.95311 11363 ft 261 kts 208°
2026-05-07 14:20 43.33500 -5.96756 11660 ft 278 kts 225°
2026-05-07 14:20 43.32171 -5.98822 11799 ft 300 kts 229°
2026-05-07 14:21 43.30749 -6.01079 11935 ft 321 kts 228°
2026-05-07 14:21 43.29239 -6.03459 12167 ft 337 kts 228°
2026-05-07 14:21 43.27675 -6.05911 12721 ft 343 kts 228°
2026-05-07 14:21 43.26096 -6.08379 13360 ft 345 kts 228°
2026-05-07 14:22 43.24523 -6.10834 13942 ft 348 kts 228°
2026-05-07 14:22 43.22912 -6.13348 14504 ft 351 kts 228°
2026-05-07 14:22 43.21289 -6.15878 14979 ft 354 kts 228°
2026-05-07 14:22 43.19654 -6.18421 15520 ft 356 kts 228°
2026-05-07 14:23 43.18005 -6.20982 16062 ft 359 kts 228°
2026-05-07 14:23 43.16361 -6.23534 16607 ft 362 kts 228°
2026-05-07 14:23 43.14647 -6.26082 17129 ft 365 kts 222°
2026-05-07 14:23 43.12571 -6.28103 17655 ft 368 kts 207°
2026-05-07 14:24 43.10159 -6.29322 18171 ft 372 kts 193°
2026-05-07 14:24 43.07571 -6.29630 18616 ft 377 kts 178°
2026-05-07 14:24 43.04969 -6.28988 19058 ft 383 kts 164°
2026-05-07 14:24 43.02455 -6.27857 19506 ft 386 kts 163°
2026-05-07 14:25 42.99891 -6.26707 19969 ft 389 kts 163°
2026-05-07 14:25 42.97298 -6.25551 20420 ft 392 kts 164°
2026-05-07 14:25 42.94688 -6.24391 20867 ft 395 kts 164°
2026-05-07 14:25 42.92059 -6.23227 21314 ft 398 kts 164°
2026-05-07 14:26 42.89436 -6.22066 21733 ft 402 kts 164°
2026-05-07 14:26 42.86759 -6.20882 22152 ft 405 kts 164°
2026-05-07 14:26 42.84058 -6.19687 22538 ft 408 kts 163°
2026-05-07 14:26 42.81376 -6.18502 22922 ft 412 kts 163°
2026-05-07 14:27 42.78637 -6.17294 23321 ft 415 kts 163°
2026-05-07 14:27 42.75876 -6.16079 23658 ft 418 kts 163°
2026-05-07 14:27 42.73092 -6.14864 23972 ft 421 kts 164°
2026-05-07 14:27 42.70288 -6.13654 24279 ft 424 kts 164°
2026-05-07 14:28 42.67492 -6.12455 24568 ft 427 kts 164°
2026-05-07 14:28 42.64651 -6.11237 24873 ft 430 kts 164°
2026-05-07 14:28 42.61781 -6.10005 25158 ft 433 kts 164°
2026-05-07 14:28 42.58900 -6.08766 25457 ft 435 kts 164°
2026-05-07 14:29 42.56044 -6.07532 25826 ft 435 kts 164°
2026-05-07 14:29 42.53142 -6.06278 26134 ft 437 kts 164°
2026-05-07 14:29 42.50233 -6.05026 26414 ft 440 kts 164°
2026-05-07 14:29 42.47299 -6.03769 26678 ft 442 kts 164°
2026-05-07 14:30 42.44355 -6.02508 26929 ft 445 kts 164°
2026-05-07 14:30 42.41388 -6.01237 27177 ft 448 kts 164°
2026-05-07 14:30 42.38392 -5.99955 27417 ft 451 kts 164°
2026-05-07 14:30 42.35430 -5.98691 27663 ft 453 kts 164°
2026-05-07 14:31 42.32410 -5.97406 27905 ft 456 kts 164°
2026-05-07 14:31 42.29374 -5.96115 28144 ft 458 kts 164°
2026-05-07 14:31 42.26326 -5.94818 28379 ft 460 kts 164°
2026-05-07 14:31 42.23252 -5.93509 28563 ft 464 kts 164°
2026-05-07 14:32 42.20199 -5.92210 28720 ft 467 kts 164°
2026-05-07 14:32 42.17089 -5.90889 28860 ft 466 kts 165°
2026-05-07 14:32 42.14030 -5.89589 28874 ft 456 kts 165°
2026-05-07 14:33 42.07997 -5.87029 28876 ft 452 kts 165°
2026-05-07 14:33 42.02035 -5.84506 28878 ft 453 kts 165°
2026-05-07 14:34 41.95999 -5.81955 28875 ft 454 kts 165°
2026-05-07 14:34 41.90972 -5.79840 28877 ft 454 kts 165°
2026-05-07 14:35 41.84931 -5.77305 28876 ft 454 kts 165°
2026-05-07 14:35 41.78934 -5.74787 28861 ft 454 kts 165°
2026-05-07 14:36 41.72890 -5.72252 28859 ft 454 kts 165°
2026-05-07 14:36 41.66886 -5.69742 28897 ft 453 kts 165°
2026-05-07 14:37 41.60867 -5.67199 28884 ft 452 kts 161°
2026-05-07 14:37 41.55529 -5.62780 28886 ft 456 kts 137°
2026-05-07 14:37 41.53450 -5.59584 28886 ft 456 kts 124°
2026-05-07 14:38 41.51895 -5.55961 28875 ft 456 kts 113°
2026-05-07 14:38 41.50881 -5.51963 28870 ft 454 kts 102°
2026-05-07 14:38 41.49440 -5.43719 28870 ft 455 kts 102°
2026-05-07 14:39 41.47981 -5.35528 28873 ft 456 kts 102°
2026-05-07 14:39 41.46503 -5.27303 28911 ft 454 kts 103°
2026-05-07 14:40 41.45030 -5.19166 28914 ft 452 kts 103°
2026-05-07 14:40 41.43552 -5.11003 28900 ft 451 kts 103°
2026-05-07 14:41 41.42078 -5.02866 28893 ft 451 kts 103°
2026-05-07 14:41 41.40607 -4.94770 28904 ft 451 kts 104°
2026-05-07 14:42 41.39122 -4.86654 28924 ft 449 kts 105°
2026-05-07 14:42 41.37635 -4.78615 28921 ft 450 kts 105°
2026-05-07 14:43 41.36103 -4.70363 28909 ft 462 kts 105°
2026-05-07 14:43 41.34563 -4.62090 28908 ft 463 kts 105°
2026-05-07 14:44 41.33019 -4.53763 28905 ft 461 kts 105°
2026-05-07 14:44 41.31499 -4.45601 28612 ft 439 kts 105°
2026-05-07 14:45 41.30781 -4.41757 28469 ft 416 kts 105°
2026-05-07 14:45 41.30097 -4.38103 28049 ft 401 kts 105°
2026-05-07 14:45 41.29434 -4.34579 27431 ft 393 kts 106°
2026-05-07 14:45 41.28771 -4.31073 26764 ft 387 kts 106°
2026-05-07 14:46 41.28114 -4.27616 26098 ft 382 kts 106°
2026-05-07 14:46 41.27466 -4.24216 25449 ft 377 kts 107°
2026-05-07 14:46 41.26663 -4.20944 24807 ft 368 kts 118°
2026-05-07 14:46 41.25392 -4.18044 24171 ft 359 kts 130°
2026-05-07 14:47 41.23776 -4.15618 23552 ft 352 kts 136°
2026-05-07 14:47 41.22084 -4.13273 22818 ft 348 kts 136°
2026-05-07 14:47 41.20418 -4.10954 22077 ft 345 kts 136°
2026-05-07 14:47 41.18774 -4.08662 21356 ft 342 kts 136°
2026-05-07 14:48 41.17130 -4.06369 20654 ft 339 kts 136°
2026-05-07 14:48 41.15530 -4.04137 19972 ft 337 kts 136°
2026-05-07 14:48 41.13916 -4.01891 19298 ft 334 kts 136°
2026-05-07 14:48 41.12312 -3.99660 18641 ft 332 kts 136°
2026-05-07 14:49 41.10719 -3.97447 17970 ft 331 kts 136°
2026-05-07 14:49 41.09133 -3.95243 17283 ft 328 kts 136°
2026-05-07 14:49 41.07562 -3.93065 16634 ft 325 kts 136°
2026-05-07 14:49 41.06025 -3.90937 16017 ft 321 kts 136°
2026-05-07 14:50 41.04479 -3.88795 15409 ft 318 kts 136°
2026-05-07 14:50 41.02952 -3.86678 14797 ft 315 kts 136°
2026-05-07 14:50 41.01447 -3.84597 14254 ft 310 kts 136°
2026-05-07 14:50 41.00015 -3.82615 14119 ft 291 kts 136°
2026-05-07 14:51 40.98735 -3.80615 13867 ft 281 kts 124°
2026-05-07 14:51 40.97937 -3.78269 13423 ft 281 kts 107°
2026-05-07 14:51 40.97675 -3.75701 12891 ft 281 kts 97°
2026-05-07 14:51 40.97551 -3.73131 12375 ft 277 kts 97°
2026-05-07 14:52 40.97425 -3.70621 11926 ft 276 kts 96°
2026-05-07 14:52 40.97297 -3.68090 11537 ft 274 kts 97°
2026-05-07 14:52 40.96954 -3.65636 11181 ft 269 kts 112°
2026-05-07 14:52 40.96348 -3.63305 10788 ft 268 kts 112°
2026-05-07 14:53 40.95697 -3.60994 10453 ft 265 kts 122°
2026-05-07 14:53 40.94568 -3.59125 10105 ft 256 kts 144°
2026-05-07 14:53 40.93072 -3.58018 9890 ft 249 kts 164°
2026-05-07 14:53 40.91351 -3.57692 9398 ft 248 kts 183°
2026-05-07 14:54 40.89641 -3.57713 9131 ft 243 kts 182°
2026-05-07 14:54 40.87946 -3.57696 8727 ft 243 kts 181°
2026-05-07 14:54 40.86236 -3.57679 8488 ft 250 kts 181°
2026-05-07 14:54 40.84473 -3.57667 8251 ft 253 kts 181°
2026-05-07 14:55 40.82715 -3.57657 7927 ft 252 kts 181°
2026-05-07 14:55 40.80962 -3.57646 7585 ft 251 kts 180°
2026-05-07 14:55 40.79240 -3.57636 7269 ft 251 kts 180°
2026-05-07 14:55 40.77497 -3.57626 6939 ft 248 kts 180°
2026-05-07 14:56 40.75773 -3.57616 6618 ft 247 kts 180°
2026-05-07 14:56 40.74058 -3.57606 6296 ft 247 kts 180°
2026-05-07 14:56 40.72336 -3.57596 5958 ft 246 kts 179°
2026-05-07 14:56 40.70665 -3.57587 5631 ft 238 kts 180°
2026-05-07 14:57 40.69044 -3.57577 5314 ft 228 kts 179°
2026-05-07 14:57 40.67481 -3.57568 5018 ft 220 kts 179°
2026-05-07 14:57 40.65959 -3.57559 4756 ft 214 kts 179°
2026-05-07 14:57 40.64503 -3.57551 4455 ft 206 kts 178°
2026-05-07 14:58 40.63092 -3.57543 4163 ft 198 kts 178°
2026-05-07 14:58 40.61764 -3.57536 3899 ft 183 kts 178°
2026-05-07 14:58 40.60536 -3.57529 3648 ft 169 kts 178°
2026-05-07 14:58 40.59418 -3.57523 3445 ft 157 kts 177°
2026-05-07 14:59 40.58357 -3.57516 3228 ft 152 kts 175°
2026-05-07 14:59 40.57308 -3.57510 3021 ft 150 kts 176°
2026-05-07 14:59 40.56267 -3.57503 2816 ft 149 kts 176°
2026-05-07 14:59 40.55227 -3.57497 2621 ft 151 kts 177°
2026-05-07 15:00 40.54153 -3.57491 2403 ft 157 kts 179°
2026-05-07 15:00 40.53040 -3.57484 2199 ft 162 kts 180°
2026-05-07 15:00 40.51906 -3.57467 2016 ft 162 kts 181°
2026-05-07 15:00 40.50882 -3.57469 1998 ft 131 kts 180°
2026-05-07 15:01 40.50154 -3.57468 1987 ft 63 kts 180°
2026-05-07 15:01 40.49935 -3.57538 1987 ft 20 kts 206°
2026-05-07 15:01 40.49829 -3.57615 1983 ft 17 kts 212°
2026-05-07 15:01 40.49726 -3.57681 1987 ft 16 kts 190°
2026-05-07 15:02 40.49581 -3.57684 1987 ft 23 kts 179°
2026-05-07 15:02 40.49416 -3.57683 1988 ft 24 kts 179°
2026-05-07 15:02 40.49255 -3.57721 1992 ft 22 kts 239°
2026-05-07 15:02 40.49244 -3.57902 1997 ft 19 kts 270°
2026-05-07 15:03 40.49210 -3.58047 2003 ft 19 kts 210°
2026-05-07 15:03 40.49054 -3.58052 2003 ft 25 kts 180°
2026-05-07 15:03 40.48877 -3.58050 2003 ft 26 kts 179°
2026-05-07 15:03 40.48688 -3.58047 2003 ft 28 kts 180°
2026-05-07 15:04 40.48503 -3.57976 1997 ft 30 kts 144°
2026-05-07 15:04 40.48311 -3.57810 1991 ft 34 kts 142°
2026-05-07 15:04 40.48141 -3.57635 1998 ft 29 kts 142°
2026-05-07 15:04 40.48000 -3.57494 2001 ft 22 kts 142°
2026-05-07 15:05 40.47878 -3.57371 2005 ft 22 kts 142°
2026-05-07 15:05 40.47747 -3.57236 2000 ft 26 kts 142°
2026-05-07 15:05 40.47601 -3.57088 1996 ft 28 kts 142°
2026-05-07 15:05 40.47438 -3.56922 1990 ft 31 kts 142°
2026-05-07 15:06 40.47324 -3.56866 1987 ft 12 kts 215°
2026-05-07 15:06 40.47226 -3.56925 1986 ft 20 kts 181°
2026-05-07 15:06 40.47099 -3.56829 1982 ft 23 kts 135°
2026-05-07 15:06 40.46987 -3.56723 1975 ft 6 kts 212°
2026-05-07 15:07 40.46959 -3.56786 1981 ft 10 kts 241°
2026-05-07 15:07 40.46950 -3.56807 1983 ft 1 kts 240°
2026-05-07 15:07 40.46948 -3.56811 1979 ft 0 kts 240°